Location: Madrid
(40.4000°N, 3.6830°W)
Time: 09:01:49
(UTC+01:00)

ISS - Pass Details

Date: 18 November 2017
Orbit: 402 x 407 km, 51.6° (Epoch: 21 November)

Event Time Altitude Azimuth Distance (km) Brightness Sun altitude
Exits shadow 05:31:17 16° 103° (ESE) 1,158 -0.8 -29.0°
Drops below altitude 10° 05:32:02 10° 108° (ESE) 1,449 -0.2 -28.9°
Sets 05:34:10 0° 114° (ESE) 2,305 1.0 -28.5°
